Regional Weather Roundup
Issued by NWS

Home | Current Version | Previous Version | Graphics & Text | Print | Product List | Glossary On
Versions: 1 2 3 4 5 6 7 8 9 10 11 12 13 14 15 16 17 18 19 20 21 22 23 24 25 26 27 28 29 30 31 32 33 34 35 36 37 38 39 40 41 42 43 44 45 46 47 48 49 50
314
ASUS44 KJAN 270110
RWRMS

MISSISSIPPI HOURLY WEATHER ROUNDUP
NATIONAL WEATHER SERVICE JACKSON MS
700 PM CST WED NOV 26 2014

NOTE: "FAIR: INDICATES FEW OR NO CLOUDS BELOW 12,000 FEET WITH NO
SIGNIFICANT WEATHER AND/OR OBSTRUCTIONS TO VISIBILITY.

MSZ001>002-007>008-010>013-018>021-025>028-034>036-270200-
NORTHWEST MISSISSIPPI

CITY           SKY/WX    TMP DP  RH WIND       PRES   REMARKS
CLARKSDALE     FAIR      43  36  75 CALM      30.15R
CLEVELAND      FAIR      47  39  73 NW3       30.16R
GREENWOOD      PTCLDY    51  32  48 NW5       30.14R
GREENVILLE     PTCLDY    51  35  54 W6        30.16R
GRENADA        FAIR      45  34  65 CALM      30.16R
OLIVE BRANCH   MOCLDY    41  37  87 CALM      30.13R
OXFORD         MOCLDY    45  32  61 NW5       30.15R
TUNICA         CLEAR     37  34  87 E3        30.15R
$$

MSZ003>006-009-014>017-022>024-029>033-037>039-270200-
NORTHEAST MISSISSIPPI

CITY           SKY/WX    TMP DP  RH WIND       PRES   REMARKS
COLUMBUS AFB   PTCLDY    55  35  46 NW30      30.11R
CORINTH        MOCLDY    45  34  65 W9        30.09R
GOLDN TRIANGLE MOCLDY    54  34  47 NW16G23   30.10R
STARKVILLE     FAIR      54  34  47 NW9G21    30.11R
TUPELO         PTCLDY    49  31  49 NW14      30.13R
$$

MSZ040-058-270200-
CENTRAL MISSISSIPPI

CITY           SKY/WX    TMP DP  RH WIND       PRES   REMARKS
JACKSON INTL   CLEAR     59  36  42 SW6       30.12R
JACKSON HAWKNS CLEAR     58  36  43 W9        30.13R
MERIDIAN KEY   CLEAR     50  35  56 SW6       30.11R
MERIDIAN NAS   PTCLDY    56  34  43 SW6       30.10R
RAYMOND        FAIR      57  52  82 W8        30.14R
VICKSBURG      CLEAR     54  37  52 W7        30.16R
$$

MSZ059>079-270200-
SOUTH MISSISSIPPI

CITY           SKY/WX    TMP DP  RH WIND       PRES   REMARKS
BROOKHAVEN     FAIR      57  39  51 CALM      30.16R
HATTIESBURG    CLEAR     51  39  63 S3        30.16R
MCCOMB         CLEAR     57  38  48 SW6       30.16R
NATCHEZ        CLEAR     55  37  50 SW6       30.17R
PINE BELT      CLEAR     54  36  50 S6        30.15S
$$

MSZ080>082-270200-
COASTAL MISSISSIPPI

CITY           SKY/WX    TMP DP  RH WIND       PRES   REMARKS
BILOXI         CLEAR     57  45  64 SW14      30.17F
PASCAGOULA     CLEAR     57  44  62 SW7       30.18F
GULFPORT       CLEAR     58  44  60 SW8       30.17S
$$



USA.gov is the U.S. government's official web portal to all federal, state and local government web resources and services.